Weather History for Safford, AZ

Change the Weather History Date:

Sunday, March 3, 2013

  Actual Average Record
Temperature  
Mean Temperature 55 °F -  
Max Temperature 73 °F 65 °F 84 °F (2009)
Min Temperature 37 °F 35 °F 17 °F (2002)
Degree Days  
Heating Degree Days 10    
Growing Degree Days 5 (Base 50)    
Moisture  
Dew Point 15 °F    
Average Humidity 20    
Maximum Humidity 38    
Minimum Humidity 10    
Precipitation  
Precipitation 0.00 in - - ()
Sea Level Pressure  
Sea Level Pressure 29.97 in    
Wind  
Wind Speed 5 mph (West)    
Max Wind Speed 18 mph    
Max Gust Speed 29 mph    
Visibility 10 miles    
Events      
Averages and records for this station are not official NWS values.
T = Trace of Precipitation, MM = Missing Value Source: NWS Daily Summary

Daily Weather History Graph

Daily Weather History Graph

Search for Another Location

Airport:

Trip Planner

Search our weather history database for the weather conditions in past years. The results will help you decide how hot, cold, wet, or windy it might be!

Date:

Astronomy

Mar. 03, 2013 Rise Set
Actual Time 6:43 AM MST 6:17 PM MST
Civil Twilight 6:18 AM MST 6:42 PM MST
Nautical Twilight 5:50 AM MST 7:10 PM MST
Astronomical Twilight 5:21 AM MST 7:39 PM MST
Moon No Moon Rise 10:22 AM MST (3/3)
Length of Visible Light 12h 23m
Length of Day
11h 33m
Waning Gibbous, 63% of the Moon is Illuminated
Mar 3
Waning Gibbous
Mar 4
Last Quarter
Mar 11
New
Mar 19
First Quarter
Mar 27
Full

Hourly Weather History & Observations

Time (MST) Temp. Windchill Dew Point Humidity Pressure Visibility Wind Dir Wind Speed Gust Speed Precip Events Conditions
12:51 AM 44.1 °F - 12.9 °F 28% 30.08 in 10.0 mi Calm Calm - N/A   Clear
1:51 AM 43.0 °F 41.3 °F 12.0 °F 28% 30.08 in 10.0 mi SE 3.5 mph - N/A   Clear
2:51 AM 37.9 °F 35.5 °F 10.9 °F 33% 30.06 in 10.0 mi South 3.5 mph - N/A   Clear
3:51 AM 44.1 °F - 14.0 °F 30% 30.03 in 10.0 mi Calm Calm - N/A   Clear
4:51 AM 37.0 °F - 12.0 °F 36% 30.03 in 10.0 mi Calm Calm - N/A   Clear
5:51 AM 37.9 °F 35.5 °F 14.0 °F 38% 30.04 in 10.0 mi NNE 3.5 mph - N/A   Clear
6:51 AM 39.0 °F 34.8 °F 12.9 °F 34% 30.06 in 10.0 mi SE 5.8 mph - N/A   Clear
7:51 AM 45.0 °F 41.8 °F 16.0 °F 31% 30.07 in 10.0 mi ESE 5.8 mph - N/A   Clear
8:51 AM 52.0 °F - 15.1 °F 23% 30.07 in 10.0 mi SE 4.6 mph - N/A   Clear
9:51 AM 61.0 °F - 17.1 °F 18% 30.04 in 10.0 mi Variable 5.8 mph - N/A   Clear
10:51 AM 66.0 °F - 12.9 °F 13% 30.02 in 10.0 mi Variable 3.5 mph - N/A   Clear
11:51 AM 69.1 °F - 12.9 °F 11% 29.98 in 10.0 mi Variable 3.5 mph - N/A   Clear
12:51 PM 73.0 °F - 16.0 °F 11% 29.95 in 10.0 mi West 9.2 mph - N/A   Clear
1:51 PM 73.0 °F - 17.1 °F 12% 29.91 in 10.0 mi West 12.7 mph - N/A   Clear
2:51 PM 73.9 °F - 16.0 °F 11% 29.92 in 10.0 mi WNW 18.4 mph 24.2 mph N/A   Clear
3:51 PM 73.0 °F - 15.1 °F 11% 29.88 in 10.0 mi NW 18.4 mph 28.8 mph N/A   Clear
4:51 PM 73.0 °F - 12.9 °F 10% 29.88 in 10.0 mi NW 12.7 mph 19.6 mph N/A   Clear
5:51 PM 71.1 °F - 12.9 °F 11% 29.87 in 10.0 mi NNW 15.0 mph 23.0 mph N/A   Clear
6:51 PM 68.0 °F - 15.1 °F 13% 29.92 in 10.0 mi NW 13.8 mph - N/A   Clear
7:51 PM 66.9 °F - 18.0 °F 15% 29.91 in 10.0 mi NNW 11.5 mph - N/A   Mostly Cloudy
8:51 PM 66.0 °F - 17.1 °F 15% 29.88 in 10.0 mi Calm Calm - N/A   Clear
9:51 PM 64.9 °F - 18.0 °F 16% 29.86 in 10.0 mi South 5.8 mph - N/A   Partly Cloudy
10:51 PM 62.1 °F - 17.1 °F 18% 29.85 in 10.0 mi Calm Calm - N/A   Mostly Cloudy
11:51 PM 59.0 °F - 18.0 °F 20% 29.83 in 10.0 mi SW 4.6 mph - N/A   Clear